Station 44008 (LLNR 827) - NANTUCKET 54 NM Southeast of Nantucket Image indicating link to RSS feed of recent meteorological observations for station 44008

Nantucket Shoals LB "N"


Conditions at 44008 as of
(7:00 pm EDT)
2300 GMT on 05/30/2024:
     

Click on the graph icon in the table below to see a time series plot of the last five days of that observation.

5-day plot - Wind Direction Wind Direction (WDIR):WNW ( 290 deg true )
5-day plot - Wind Speed Wind Speed (WSPD): 7.8 kts
5-day plot - Wind Gust Wind Gust (GST): 11.7 kts
5-day plot - Atmospheric Pressure Atmospheric Pressure (PRES):29.86 in
5-day plot - Pressure Tendency Pressure Tendency (PTDY):+0.02 in ( Rising )
5-day plot - Water Temperature Water Temperature (WTMP): 53.4 °F
5-day plot - Wind Speed at 10 Meters Wind Speed at 10 meters (WSPD10M): 7.8 kts
5-day plot - Wind Speed at 20 Meters Wind Speed at 20 meters (WSPD20M): 9.7 kts
5-day plot -  Wind Speed, Wind Gust and Atmospheric Pressure Combined plot of Wind Speed, Gust, and Air Pressure
Supplemental Measurements
Highest 1-minute Wind Speed
Time (EDT)5-day plot - 1-Minute Wind Speed WSPD 5-day plot - 1-Minute Wind Direction WDIR
6:51 pm 9.7 kts-
Previous observations
TIME
(EDT)
5-day plot - Wind Direction
WDIR
 
5-day plot - Wind Speed
WSPD
kts
5-day plot - Wind Gust
GST
kts
5-day plot - Wave Height
WVHT
ft
5-day plot - Dominant Wave Period
DPD
sec
5-day plot - Average Wave Period
APD
sec
5-day plot - Mean Wave Direction
MWD
 
5-day plot - Atmospheric Pressure
PRES
in
5-day plot - Pressure Tendency
PTDY
in
5-day plot - Air Temperature
ATMP
°F
5-day plot - Water Temperature
WTMP
°F
5-day plot - Dew Point
DEWP
°F
5-day plot - Salinity
SAL
psu
5-day plot - Visibility
VIS
nmi
5-day plot - Tide (above MLLW)
TIDE
ft
2024-05-30 06:50 pm W 9.7 13.6 3.3 85.5SSE29.85-- 54.0----
2024-05-30 06:40 pm W 9.7 11.7----29.85-- 53.6----
2024-05-30 06:30 pm W 11.7 15.5----29.85-- 53.6----
2024-05-30 06:20 pmWSW 13.6 15.5 3.0 85.8SSE29.85-- 53.8----
2024-05-30 06:10 pmWSW 11.7 13.6 3.0-5.8SSE29.84-- 53.6----
2024-05-30 06:00 pmWSW 7.8 11.7----29.84+0.00- 53.2----
2024-05-30 05:50 pm SW 5.8 7.8 3.0 86.1 S29.83-- 52.5----
2024-05-30 05:40 pmWSW 7.8 9.7 3.0-6.1 S29.83-- 52.5----
2024-05-30 05:30 pmWSW 9.7 9.7----29.83-- 52.7----
2024-05-30 05:20 pmWSW 9.7 11.7 3.3 86.2SSE29.83-- 53.1----
2024-05-30 05:10 pm SW 9.7 11.7 3.3-6.2SSE29.83-------
2024-05-30 05:00 pm SW 9.7 9.7----29.83-0.01- 53.6----
2024-05-30 04:50 pmWSW 9.7 11.7 3.3 86.0SSE29.83-- 53.8----
2024-05-30 04:40 pm SW 9.7 11.7----29.84-- 54.0----
2024-05-30 04:30 pm SW 7.8 9.7----29.84-- 54.1----
2024-05-30 04:20 pm SW 7.8 9.7 3.3 76.1 S29.84-- 54.3----
2024-05-30 04:10 pm SW 7.8 9.7 3.3-6.1 S29.83-- 54.7----
2024-05-30 04:00 pm SW 5.8 7.8----29.83-0.02- 54.5----
2024-05-30 03:50 pm SW 5.8 5.8 3.3 76.0 S29.84-- 53.2----
2024-05-30 03:40 pmSSW 5.8 5.8----29.84-- 53.4----
2024-05-30 03:30 pmSSW 5.8 7.8----29.84-- 54.7----
2024-05-30 03:20 pmSSW 5.8 7.8 3.3 75.9 S29.84-- 53.8----
2024-05-30 03:10 pmSSW 5.8 7.8 3.3-5.9 S29.84-- 53.8----
2024-05-30 03:00 pmSSW 5.8 7.8----29.84-0.02- 54.0----
2024-05-30 02:50 pmSSW 5.8 5.8 3.6 76.0SSE29.84-- 54.0----
2024-05-30 02:40 pmSSW 5.8 5.8----29.84-- 54.1----
2024-05-30 02:30 pm SW 3.9 5.8----29.83-- 54.3----
2024-05-30 02:20 pm SW 3.9 5.8 3.6 75.9 S29.84-- 54.5----
2024-05-30 02:10 pm SW 3.9 5.8----29.84-- 55.0----
2024-05-30 02:00 pm SW 3.9 5.8----29.84-0.03- 55.0----
2024-05-30 01:50 pm SW 3.9 5.8 3.6 75.9 S29.84-- 55.0----
2024-05-30 01:40 pmSSW 3.9 5.8----29.84-- 54.9----
2024-05-30 01:30 pmSSW 3.9 5.8----29.84-- 54.7----
2024-05-30 01:20 pmSSW 3.9 5.8 3.6 75.9 S29.85-- 55.2----
2024-05-30 01:10 pm SW 3.9 5.8 3.6-5.9 S29.85-- 54.3----
2024-05-30 01:00 pm SW 3.9 5.8----29.85-0.01- 53.8----
2024-05-30 12:50 pmSSW 5.8 5.8 3.9 86.0SSE29.85-- 54.0----
2024-05-30 12:40 pm S 5.8 5.8 3.9-6.0SSE29.85-- 53.6----
2024-05-30 12:30 pm S 3.9 5.8----29.86-- 53.2----
2024-05-30 12:20 pm S 3.9 5.8 3.9 86.1SSE29.86-- 51.8----
2024-05-30 12:10 pmSSW 3.9 3.9----29.86-- 52.0----
2024-05-30 12:00 pm SW 3.9 3.9----29.86-0.01- 52.0----
2024-05-30 11:50 amSSW 3.9 3.9 3.6 86.2 SE29.85-- 51.8----
2024-05-30 11:40 am S 3.9 3.9----29.85-- 51.4----
2024-05-30 11:30 amSSE 1.9 3.9----29.85-- 51.3----
2024-05-30 11:20 am- 0.0 1.9 3.6 86.2SSE29.85-- 51.3----
2024-05-30 11:10 amWSW 1.9 3.9 3.6-6.2SSE29.86-- 50.9----
2024-05-30 11:00 amWSW 3.9 5.8----29.87-0.01- 50.9----
2024-05-30 10:50 amWSW 3.9 5.8 3.9 76.4SSE29.87-- 50.9----
2024-05-30 10:40 am SW 1.9 3.9----29.87-- 51.8----
2024-05-30 10:30 am SW 1.9 3.9----29.87-- 51.1----
2024-05-30 10:20 amSSW 1.9 1.9 3.9 86.6SSE29.87-- 51.1----
2024-05-30 10:10 am S 1.9 3.9 3.9-6.6SSE29.87-- 51.1----
2024-05-30 10:00 am S 1.9 1.9----29.87-- 51.1----
2024-05-30 09:50 am- 0.0 1.9 3.6 76.5SSE29.87-- 51.1----
2024-05-30 09:40 am- 0.0 1.9----29.87-- 50.7----
2024-05-30 09:30 am- 0.0 1.9----29.87-- 50.9----
2024-05-30 09:20 am SE 1.9 1.9 3.6 86.4 SE29.87-- 51.3----
2024-05-30 09:10 am SE 1.9 3.9 3.6-6.4 SE29.87-- 51.1----
2024-05-30 09:00 am S 1.9 3.9----29.87-- 51.3----
2024-05-30 08:50 amSSE 1.9 3.9 3.3 76.5 SE29.87-- 50.9----
2024-05-30 08:40 am SE 3.9 3.9----29.88-- 50.9----
2024-05-30 08:30 amSSE 3.9 3.9----29.88-- 51.8----
2024-05-30 08:20 amSSE 3.9 3.9 3.6 86.6SSE29.88-- 50.5----
2024-05-30 08:10 amSSE 3.9 5.8 3.6-6.6SSE29.88-- 50.7----
2024-05-30 08:00 amSSE 3.9 5.8----29.88-- 52.5----
2024-05-30 07:50 am SE 5.8 7.8 3.9 86.6SSE29.87-- 52.9----
2024-05-30 07:40 amESE 5.8 7.8----29.87-- 52.9----
2024-05-30 07:30 amESE 5.8 7.8----29.87-- 53.4----
2024-05-30 07:20 am E 3.9 5.8 3.6 86.3 S29.87-- 54.0----
2024-05-30 07:10 am E 3.9 5.8 3.6-6.3 S29.87-- 54.0----
2024-05-30 07:00 am E 5.8 7.8----29.87+0.00- 54.3----
2024-05-30 06:50 am E 3.9 5.8 3.6 86.4 S29.86-- 54.7----
2024-05-30 06:40 am E 1.9 3.9 3.6-6.4 S29.87-- 55.0----
2024-05-30 06:30 am E 1.9 1.9----29.86-- 55.0----
2024-05-30 06:20 am E 3.9 3.9 3.6 106.4 E29.87-- 55.0----
2024-05-30 06:10 am- 0.0 3.9 3.6-6.4 E29.86-- 54.9----
2024-05-30 06:00 am- 0.0 1.9----29.86-0.02- 55.0----
2024-05-30 05:50 amENE 1.9 1.9 3.6 86.3SSE29.86-- 55.0----
2024-05-30 05:40 am E 3.9 5.8 3.6-6.3SSE29.87-- 54.9----
2024-05-30 05:30 amESE 1.9 3.9----29.87-- 55.0----
2024-05-30 05:20 am E 3.9 5.8 3.9 86.2 S29.87-- 55.4----
2024-05-30 05:10 amENE 1.9 3.9 3.9-6.2 S29.87-- 55.6----
2024-05-30 05:00 amENE 1.9 3.9----29.86-0.04- 55.4----
2024-05-30 04:50 am- 0.0 1.9 3.9 86.3 S29.86-- 55.4----
2024-05-30 04:40 am- 0.0 1.9 3.9-6.3 S29.86-- 55.6----
2024-05-30 04:30 am- 0.0 1.9----29.87-- 55.2----
2024-05-30 04:20 am- 0.0 1.9 3.6 76.1SSE29.87-- 55.0----
2024-05-30 04:10 am- 0.0 1.9 3.6-6.1SSE29.87-- 54.9----
2024-05-30 04:00 am E 3.9 5.8----29.87-0.04- 54.9----
2024-05-30 03:50 am- 0.0 1.9 3.9 86.0SSE29.87-- 54.9----
2024-05-30 03:40 amENE 1.9 3.9 3.9-6.0SSE29.87-- 54.5----
2024-05-30 03:30 am- 0.0 1.9----29.87-- 54.3----
2024-05-30 03:20 am- 0.0 3.9 3.9 76.2 S29.88-- 54.0----
2024-05-30 03:10 am- 0.0 1.9----29.88-- 54.0----
2024-05-30 03:00 am- 0.0 1.9----29.88-0.03- 54.0----
2024-05-30 02:50 am E 1.9 3.9 4.6 76.1SSE29.88-- 54.1----
2024-05-30 02:40 am E 3.9 5.8 4.6-6.1SSE29.87-- 53.8----
2024-05-30 02:30 am E 3.9 5.8----29.88-- 53.6----
2024-05-30 02:20 amENE 3.9 3.9 4.3 86.2 SE29.89-- 54.3----
2024-05-30 02:10 amENE 1.9 3.9----29.89-- 54.5----
2024-05-30 02:00 am E 1.9 3.9----29.89-0.02- 54.3----
2024-05-30 01:50 amENE 1.9 1.9 4.3 86.0 S29.90-- 54.1----
2024-05-30 01:40 am- 0.0 1.9----29.90-- 54.0----
2024-05-30 01:30 am- 0.0 1.9----29.90-- 53.4----
2024-05-30 01:20 am E 3.9 5.8 3.9 76.0SSE29.91-- 52.3----
2024-05-30 01:10 am E 1.9 5.8 3.9-6.0SSE29.91-- 52.2----
2024-05-30 01:00 am E 1.9 3.9----29.91-0.01- 52.0----
2024-05-30 12:50 am- 0.0 1.9 4.6 86.2 SE29.91-- 52.2----
2024-05-30 12:40 am N 1.9 3.9----29.91-- 53.4----
2024-05-30 12:30 am- 0.0 1.9----29.91-- 53.2----
2024-05-30 12:20 am- 0.0 1.9 4.9 86.3SSE29.91-- 52.3----
2024-05-30 12:10 am- 0.0 1.9 4.9-6.3SSE29.91-- 53.2----
2024-05-30 12:00 am- 0.0 3.9----29.91+0.00- 53.6----
2024-05-29 11:50 pm- 0.0 1.9 4.3 76.0 S29.91-- 52.3----
2024-05-29 11:40 pm W 1.9 3.9----29.91-- 51.8----
2024-05-29 11:30 pmWSW 3.9 5.8----29.91-- 52.2----
2024-05-29 11:20 pm SW 3.9 7.8 4.3 86.0SSE29.91-- 53.4----
2024-05-29 11:10 pm W 3.9 7.8 4.3-6.0SSE29.91-- 52.7----
2024-05-29 11:00 pm S 5.8 7.8----29.91+0.00- 53.8----
2024-05-29 10:50 pm S 5.8 7.8 4.6 76.2SSE29.91-- 54.7----
2024-05-29 10:40 pmSSE 7.8 7.8----29.91-- 55.0----
2024-05-29 10:30 pmSSE 5.8 7.8----29.91-- 55.4----
2024-05-29 10:20 pmSSE 3.9 5.8 4.6 76.1SSE29.91-- 55.4----
2024-05-29 10:10 pmSSE 3.9 5.8----29.91-- 54.9----
2024-05-29 10:00 pm S 3.9 5.8----29.91+0.00- 55.8----
2024-05-29 09:50 pm S 3.9 5.8 4.3 86.2SSE29.91-- 56.1----
2024-05-29 09:40 pm S 3.9 3.9 4.3-6.2SSE29.91-- 56.3----
2024-05-29 09:30 pm S 1.9 3.9----29.91-- 56.5----
2024-05-29 09:20 pm S 1.9 3.9 4.6 86.3SSE29.92-- 56.5----
2024-05-29 09:10 pmSSW 1.9 3.9 4.6-6.3SSE29.91-- 56.5----
2024-05-29 09:00 pm S 1.9 3.9----29.91+0.01- 56.5----
2024-05-29 08:50 pm SE 1.9 3.9 5.2 86.5 S29.91-- 55.8----
2024-05-29 08:40 pmSSE 1.9 5.8----29.91-- 55.2----
2024-05-29 08:30 pmSSE 3.9 5.8----29.91-- 54.0----
2024-05-29 08:20 pm S 3.9 3.9 5.2 86.6SSW29.91-- 54.0----
2024-05-29 08:10 pm S 3.9 5.8 5.2-6.6SSW29.91-- 54.7----
2024-05-29 08:00 pm S 3.9 5.8----29.91+0.01- 54.3----
2024-05-29 07:50 pm S 3.9 5.8 4.9 86.6SSE29.91-- 55.4----
2024-05-29 07:40 pm S 3.9 5.8----29.91-- 56.1----
2024-05-29 07:30 pm S 3.9 5.8----29.91-- 55.8----
2024-05-29 07:10 pm S 3.9 5.8 4.3-6.5 S29.91-- 55.6----
2024-05-29 07:00 pm S 3.9 5.8----29.91+0.01- 54.7----
2024-05-29 06:50 pm S 3.9 5.8 4.6 116.5ESE29.91-- 53.8----

Detailed Wave Summary
for 44008 as of (6:40 pm EDT)
2240 GMT on 05/30/2024:

These wave data are displayed in rounded times.

     

Click on the graph icon in the table below to see a time series plot of the last five days of that observation.

5-day plot - Significant Wave Height Significant Wave Height (WVHT): 3.3 ft
5-day plot - Swell Height Swell Height (SwH): 3.0 ft
5-day plot - Swell Period Swell Period (SwP): 7.7 sec
5-day plot - Swell Direction Swell Direction (SwD):SSE
5-day plot - Wind Wave Height Wind Wave Height (WWH): 1.3 ft
5-day plot - Wind Wave Period Wind Wave Period (WWP): 2.4 sec
5-day plot - Wind Wave Direction Wind Wave Direction (WWD):WSW
5-day plot - Wave Steepness Wave Steepness (STEEPNESS): AVERAGE
5-day plot - Average Wave Period Average Wave Period (APD): 5.5 sec
Previous observations
TIME
(EDT)
5-day plot - Wave Height
WVHT
ft
5-day plot - Swell Height
SwH
ft
5-day plot - Swell Period
SwP
sec
5-day plot - Swell Direction
SwD
 
5-day plot - Wind Wave Height
WWH
ft
5-day plot - Wind Wave Period
WWP
sec
5-day plot - Wind Wave Direction
WWD
 
5-day plot - Wave Steepness
STEEPNESS
 
5-day plot - Average Wave Period
APD
sec
2024-05-30 06:10 pm 3.0 3.0 7.7SSE 1.3 4.3 SSE AVERAGE 5.8
2024-05-30 05:40 pm 3.0 3.0 7.7 S 1.0 4.0 S AVERAGE 6.1
2024-05-30 05:10 pm 3.3 3.3 7.7SSE 1.0 4.5 S AVERAGE 6.2
2024-05-30 04:40 pm 3.3 3.0 7.7SSE 1.0 3.8 SSW AVERAGE 6.0
2024-05-30 04:10 pm 3.3 3.0 7.1 S 1.0 4.0 S AVERAGE 6.1
2024-05-30 03:40 pm 3.3 3.3 7.1 S 1.0 4.0 S AVERAGE 6.0
2024-05-30 03:10 pm 3.3 3.3 7.1 S 1.0 3.4 SSW AVERAGE 5.9
2024-05-30 02:40 pm 3.6 3.6 7.1SSE 1.0 3.8 S AVERAGE 6.0
2024-05-30 02:10 pm 3.6 3.6 7.1 S 1.0 3.8 SSE AVERAGE 5.9
2024-05-30 01:40 pm 3.6 3.6 6.7 S 1.0 4.0 SSW STEEP 5.9
2024-05-30 01:10 pm 3.6 3.6 7.1 S 1.0 3.6 S AVERAGE 5.9
2024-05-30 12:40 pm 3.9 3.9 7.7SSE 1.0 4.0 S AVERAGE 6.0
2024-05-30 12:10 pm 3.9 3.9 7.7SSE 1.0 3.6 SSE AVERAGE 6.1
2024-05-30 11:40 am 3.6 3.6 7.7 SE 1.0 4.0 SSE AVERAGE 6.2
2024-05-30 11:10 am 3.6 3.3 7.7SSE 1.0 3.6 SSE AVERAGE 6.2
2024-05-30 10:40 am 3.9 3.6 7.1SSE 0.7 3.4 S AVERAGE 6.4
2024-05-30 10:10 am 3.9 3.6 7.7SSE 0.7 3.8 S AVERAGE 6.6
2024-05-30 09:40 am 3.6 3.3 7.1SSE 0.7 4.0 SE AVERAGE 6.5
2024-05-30 09:10 am 3.6 3.6 7.7 SE 0.7 3.6 SE AVERAGE 6.4
2024-05-30 08:40 am 3.3 3.3 7.1 SE 0.7 3.8 ESE AVERAGE 6.5
2024-05-30 08:10 am 3.6 3.6 7.7SSE 0.7 4.0 SSE AVERAGE 6.6
2024-05-30 07:40 am 3.9 3.6 7.7SSE 0.7 3.8 SSE AVERAGE 6.6
2024-05-30 07:10 am 3.6 3.3 8.3 S 1.0 4.0 SSE SWELL 6.3
2024-05-30 06:40 am 3.6 3.3 8.3 S 0.7 3.8 S SWELL 6.4
2024-05-30 06:10 am 3.6 3.6 10.0 E 1.0 3.4 SE SWELL 6.4
2024-05-30 05:40 am 3.6 3.6 7.7SSE 1.0 3.8 SSE AVERAGE 6.3
2024-05-30 05:10 am 3.9 3.6 7.7 S 1.0 3.6 SW AVERAGE 6.2
2024-05-30 04:40 am 3.9 3.9 7.7 S 1.0 3.4 SSW AVERAGE 6.3
2024-05-30 04:10 am 3.6 3.6 7.1SSE 1.0 3.7 SSE AVERAGE 6.1
2024-05-30 03:40 am 3.9 3.6 7.7SSE 1.0 3.8 SSW AVERAGE 6.0
2024-05-30 03:10 am 3.9 3.9 7.1 S 1.0 3.8 S AVERAGE 6.2
2024-05-30 02:40 am 4.6 4.3 7.1SSE 1.0 3.6 SSE STEEP 6.1
2024-05-30 02:10 am 4.3 4.3 8.3 SE 1.0 3.7 SSE AVERAGE 6.2
2024-05-30 01:40 am 4.3 4.3 7.7 S 1.0 3.8 S AVERAGE 6.0
2024-05-30 01:10 am 3.9 3.9 7.1SSE 1.3 3.8 S AVERAGE 6.0
2024-05-30 12:40 am 4.6 4.6 8.3 SE 1.0 4.0 SSW AVERAGE 6.2
2024-05-30 12:10 am 4.9 4.6 7.7SSE 1.3 4.0 S AVERAGE 6.3
2024-05-29 11:40 pm 4.3 4.3 7.1 S 1.0 3.8 S STEEP 6.0
2024-05-29 11:10 pm 4.3 4.3 7.7SSE 1.0 3.8 S AVERAGE 6.0
2024-05-29 10:40 pm 4.6 4.6 7.1SSE 1.0 4.0 SSW STEEP 6.2
2024-05-29 10:10 pm 4.6 4.6 7.1SSE 1.3 4.0 SSW STEEP 6.1
2024-05-29 09:40 pm 4.3 4.3 7.7SSE 1.0 3.4 S AVERAGE 6.2
2024-05-29 09:10 pm 4.6 4.6 7.7SSE 1.0 4.0 S AVERAGE 6.3
2024-05-29 08:40 pm 5.2 4.9 8.3 S 1.0 3.3 S AVERAGE 6.5
2024-05-29 08:10 pm 5.2 4.9 7.7SSW 1.3 3.8 SSW AVERAGE 6.6
2024-05-29 07:40 pm 4.9 4.9 8.3SSE 1.0 3.3 WSW AVERAGE 6.6
2024-05-29 07:10 pm 4.3 4.3 7.1 S 1.0 3.7 S STEEP 6.5

Plot of wave energy versus frequency (and period)